OE5MIL-13 Weather Reports


time (UTC)temp
C
wind
direction
speed
KPH
gust
KPH
rain 1hr
cm
rain 24hr
cm
rain mn
cm
humidity
%
barometer
mb
20260509124841 8 312 4.8 4.8 0.00 0.00 0.00 100
20260509122840 8 348 6.4 6.4 0.00 0.00 0.00 100
20260509120839 11 0 0.0 4.8 0.00 0.00 0.00 100
20260509114838 9 9 3.2 8.0 0.00 0.00 0.00 100
20260509112837 11 45 6.4 9.7 0.00 0.00 0.00 100
20260509110836 9 142 8.0 16.1 0.00 0.00 0.00 100
20260509104834 8 35 4.8 9.7 0.00 0.00 0.00 100
20260509102833 5 80 0.0 1.6 0.00 0.00 0.00 100
20260509100832 5 208 3.2 4.8 0.00 0.00 0.00 100
20260509094831 5 298 1.6 4.8 0.00 0.00 0.00 100
20260509092830 5 338 4.8 8.0 0.00 0.00 0.00 100
20260509090829 6 303 4.8 9.7 0.00 0.00 0.00 100
20260509084827 6 299 4.8 6.4 0.00 0.00 0.00 100
20260509082826 6 310 3.2 12.9 0.00 0.00 0.00 100
20260509080825 7 309 9.7 12.9 0.00 0.00 0.00 100
20260509074824 6 352 0.0 11.3 0.00 0.00 0.00 100
20260509072823 5 333 0.0 6.4 0.00 0.00 0.00 100
20260509070822 5 22 6.4 9.7 0.00 0.00 0.00 100
20260509064821 5 300 1.6 6.4 0.00 0.00 0.00 100
20260509062819 5 352 6.4 8.0 0.00 0.00 0.00 100
20260509060818 3 279 0.0 0.0 0.00 0.00 0.00 100
20260509054817 3 279 0.0 0.0 0.00 0.00 0.00 100
20260509052816 3 279 0.0 0.0 0.00 0.00 0.00 100
20260509050815 2 279 0.0 0.0 0.00 0.00 0.00 100
20260509044814 2 330 0.0 3.2 0.00 0.00 0.00 100
20260509042813 1 144 0.0 0.0 0.00 0.00 0.00 100
20260509040811 0 144 0.0 0.0 0.00 0.00 0.00 100
20260509034810 0 144 0.0 0.0 0.00 0.00 0.00 100
20260509032810 1 112 4.8 6.4 0.00 0.00 0.00 100
20260509030808 1 157 4.8 6.4 0.00 0.00 0.00 100
20260509024807 1 163 4.8 8.0 0.00 0.00 0.00 100
20260509022806 1 142 6.4 6.4 0.00 0.00 0.00 100
20260509020805 0 104 3.2 6.4 0.00 0.00 0.00 100
20260509014803 1 92 0.0 0.0 0.00 0.00 0.00 100
20260509012802 0 92 0.0 0.0 0.00 0.00 0.00 100
20260509010801 0 92 0.0 0.0 0.00 0.00 0.00 100
20260509004800 0 92 0.0 0.0 0.00 0.00 0.00 100
20260509002759 1 92 0.0 0.0 0.00 0.00 0.00 100
20260509000758 1 92 0.0 0.0 0.00 0.00 0.00 100
20260508234756 1 92 0.0 3.2 0.00 0.00 0.00 100
20260508232756 1 74 0.0 0.0 0.00 0.00 0.00 100
20260508230754 2 74 0.0 0.0 0.00 0.00 0.00 100
20260508222752 1 74 0.0 0.0 0.00 0.00 0.00 100
20260508220751 1 74 0.0 0.0 0.00 0.00 0.00 100
20260508214750 2 92 0.0 1.6 0.00 0.00 0.00 100
20260508212748 2 189 1.6 4.8 0.00 0.00 0.00 100
20260508210747 2 147 3.2 6.4 0.00 0.00 0.00 100
20260508204746 3 137 3.2 4.8 0.00 0.00 0.00 100
20260508202745 3 95 4.8 4.8 0.00 0.00 0.00 100
20260508200744 3 111 0.0 0.0 0.00 0.00 0.00 100
20260508194743 3 111 0.0 0.0 0.00 0.00 0.00 100
20260508192742 3 163 0.0 8.0 0.00 0.00 0.00 100
20260508190740 3 174 4.8 8.0 0.00 0.00 0.00 100
20260508184739 3 39 4.8 6.4 0.00 0.00 0.00 100
20260508182738 5 87 1.6 1.6 0.00 0.00 0.00 100
20260508180737 5 345 0.0 0.0 0.00 0.00 0.00 100
20260508174736 6 345 0.0 0.0 0.00 0.00 0.00 100
20260508172735 6 345 0.0 0.0 0.00 0.00 0.00 100
20260508170734 6 345 0.0 0.0 0.00 0.00 0.00 100
20260508164732 7 345 0.0 1.6 0.00 0.00 0.00 100
20260508162731 8 56 0.0 3.2 0.00 0.00 0.00 100
20260508160730 8 112 0.0 0.0 0.00 0.00 0.00 100
20260508154729 7 167 3.2 4.8 0.00 0.00 0.00 100
20260508152728 6 203 1.6 4.8 0.00 0.00 0.00 100
20260508150727 6 292 3.2 11.3 0.00 0.00 0.00 100
20260508144726 8 174 0.0 0.0 0.00 0.00 0.00 100
20260508142724 8 119 0.0 1.6 0.00 0.00 0.00 100
20260508140723 8 0 0.0 3.2 0.00 0.00 0.00 100
20260508134722 7 209 0.0 3.2 0.00 0.00 0.00 100
20260508132721 7 262 0.0 0.0 0.00 0.00 0.00 100
20260508130720 8 341 0.0 8.0 0.00 0.00 0.00 100